This is the latest recevied weather packets stored in our database for station/object EA4URC-10. If no packets are shown the sender has not sent any weather packets the latest 10 day(s).
| Time | Temp. | Humidity | Pressure | Rain* | Wind** | Luminosity | Snow |
|---|---|---|---|---|---|---|---|
| 1788356398 | 36.11° C | 19% | 1039.8 hPa | - | - | - | - |
| 1788354598 | 35.56° C | 21% | 1039.9 hPa | - | - | - | - |
| 1788352797 | 35° C | 21% | 1040.1 hPa | - | - | - | - |
| 1788350996 | 34.44° C | 19% | 1040.3 hPa | - | - | - | - |
| 1788349196 | 35° C | 19% | 1040.4 hPa | - | - | - | - |
| 1788347400 | 34.44° C | 21% | 1040.7 hPa | - | - | - | - |
| 1788347395 | 34.44° C | 21% | 1040.7 hPa | - | - | - | - |
| 1788345595 | 34.44° C | 21% | 1040.7 hPa | - | - | - | - |
| 1788343794 | 35° C | 25% | 1040.7 hPa | - | - | - | - |
| 1788341994 | 32.78° C | 34% | 1040.6 hPa | - | - | - | - |
| 1788340193 | 33.33° C | 35% | 1040.2 hPa | - | - | - | - |
| 1788338413 | 30° C | 42% | 1040 hPa | - | - | - | - |
| 1788336611 | 28.33° C | 42% | 1039.9 hPa | - | - | - | - |
| 1788334809 | 25.56° C | 53% | 1039.7 hPa | - | - | - | - |
| 1788333006 | 23.33° C | 72% | 1039.4 hPa | - | - | - | - |
| 1788331203 | 21.67° C | 88% | 1039 hPa | - | - | - | - |
| 1788329405 | 18.33° C | 100% | 1038.7 hPa | - | - | - | - |
| 1788327604 | 17.78° C | 100% | 1038.6 hPa | - | - | - | - |
| 1788325799 | 17.78° C | 100% | 1038.5 hPa | - | - | - | - |
| 1788323995 | 17.78° C | 100% | 1038.3 hPa | - | - | - | - |
| 1788322197 | 17.78° C | 100% | 1038.4 hPa | - | - | - | - |
| 1788320393 | 17.78° C | 100% | 1038.5 hPa | - | - | - | - |
| 1788318593 | 17.78° C | 100% | 1038.3 hPa | - | - | - | - |
| 1788316800 | 18.33° C | 100% | 1038.2 hPa | - | - | - | - |
| 1788314997 | 18.33° C | 100% | 1038.4 hPa | - | - | - | - |
* Rain since midnight (hover to see other rain measurements)
** Current wind speed in m/s (hover to see current wind gust speed)